Date,TemperatureHighF,TemperatureAvgF,TemperatureLowF,DewpointHighF,DewpointAvgF,DewpointLowF,HumidityHigh,HumidityAvg,HumidityLow,PressureMaxIn,PressureMinIn,WindSpeedMaxMPH,WindSpeedAvgMPH,GustSpeedMaxMPH,PrecipitationSumIn
2013-1-1,40.9,37.8,33.7,40.0,36.1,28.7,98,93,79,30.21,29.98,14,2,14,0.32
2013-1-2,39.9,34.5,32.2,39.4,31.4,28.8,98,88,78,30.20,30.00,9,2,9,0.03
2013-1-3,40.7,31.3,19.6,30.3,25.3,17.9,96,80,41,30.36,30.18,10,2,10,0.00
2013-1-4,36.4,25.5,14.6,25.5,20.1,12.7,95,81,61,30.47,30.36,15,3,15,0.00
2013-1-5,46.7,30.1,15.3,31.2,22.6,13.4,94,76,41,30.51,30.30,7,1,7,0.02
2013-1-6,38.0,35.3,33.0,34.7,32.6,29.3,97,90,77,30.33,30.14,12,4,12,0.02
2013-1-7,47.6,33.6,24.6,31.9,26.1,22.0,91,75,49,30.48,30.30,14,2,14,0.00
2013-1-8,57.6,33.0,19.0,31.1,23.9,16.8,93,74,29,30.49,30.36,12,1,12,0.00
2013-1-9,50.2,40.6,27.7,46.4,37.5,24.3,98,89,68,30.54,30.40,10,1,10,0.14
2013-1-10,61.0,48.9,38.1,50.5,44.3,37.6,98,85,61,30.53,30.30,8,2,8,0.00
2013-1-11,60.5,53.4,46.0,58.2,49.9,43.8,98,88,69,30.30,30.06,14,2,14,0.13
2013-1-12,70.1,56.0,45.3,62.2,54.0,44.5,99,93,74,30.17,30.02,12,1,13,0.07
2013-1-13,70.3,53.2,38.3,58.3,48.9,37.8,99,87,55,30.10,29.97,7,1,7,0.12
2013-1-14,57.5,48.3,38.5,56.7,47.0,37.2,98,95,92,30.28,30.03,9,2,9,1.34
2013-1-15,46.6,43.5,38.5,45.6,42.6,37.2,98,96,95,30.20,29.98,14,3,14,2.03
2013-1-16,54.3,47.5,42.9,52.9,46.5,41.6,99,96,92,30.06,29.92,9,2,9,0.69
2013-1-17,43.2,35.8,27.9,42.3,34.2,25.8,98,94,84,30.32,29.97,12,2,12,0.55
2013-1-18,38.4,25.0,14.4,30.6,22.1,12.7,98,89,69,30.59,30.32,2,0,2,0.01
2013-1-19,45.4,26.4,13.7,33.5,22.7,11.9,97,87,55,30.52,30.24,8,1,8,0.22
2013-1-20,48.4,30.9,20.6,34.2,26.4,19.4,96,85,56,30.25,30.15,18,3,18,0.01
2013-1-21,42.1,29.9,18.6,30.4,19.3,8.6,96,68,37,30.17,30.05,29,7,29,0.00
2013-1-22,26.9,21.4,15.6,9.5,2.4,-3.4,57,44,28,30.38,30.15,24,9,24,0.00
2013-1-23,35.7,27.8,12.8,23.2,15.0,4.4,79,59,46,30.42,30.14,18,6,18,0.00
2013-1-24,35.7,25.7,15.7,27.8,12.2,0.9,75,57,33,30.52,30.11,18,7,18,0.00
2013-1-25,31.2,24.8,17.8,30.4,19.5,6.8,97,81,56,30.46,30.15,12,4,12,0.00
2013-1-26,33.2,30.4,24.1,30.8,28.0,22.1,97,91,84,30.43,30.20,12,3,12,0.00
2013-1-27,42.7,31.1,19.1,32.1,25.5,17.5,95,81,62,30.52,30.41,12,3,12,0.07
2013-1-28,61.3,45.9,34.3,46.7,38.9,29.4,95,77,54,30.43,30.23,17,3,17,0.00
2013-1-29,69.2,52.0,40.3,52.6,46.4,39.4,99,83,48,30.25,29.94,13,2,13,0.02
2013-1-30,65.9,56.2,43.7,58.9,52.1,40.1,96,87,69,29.95,29.43,26,5,30,1.86
2013-1-31,43.6,32.4,28.0,40.7,24.8,18.9,93,74,55,30.01,29.45,26,13,26,0.02
2013-2-1,33.7,20.6,11.8,30.1,12.2,0.6,94,71,51,30.43,29.93,26,8,27,0.00
2013-2-2,29.4,21.2,11.4,27.0,17.6,8.8,96,87,47,30.43,30.13,15,2,15,0.00
2013-2-3,33.8,30.3,27.0,30.7,27.3,19.8,96,89,73,30.17,29.97,17,6,17,0.00
2013-2-4,39.2,25.3,9.1,26.6,18.9,6.8,93,78,47,30.21,30.04,8,1,8,0.07
2013-2-5,46.7,35.3,26.1,39.5,31.0,24.8,96,84,71,30.05,29.98,14,2,14,0.09
2013-2-6,52.2,34.5,22.3,35.2,27.4,21.1,98,78,36,30.30,30.05,14,2,14,0.00
2013-2-7,49.9,40.9,28.9,39.2,32.6,25.8,88,72,62,30.28,30.00,14,5,14,0.00
2013-2-8,50.7,39.0,32.4,44.9,33.8,25.6,96,82,55,30.26,29.93,22,6,22,0.06
2013-2-9,52.6,33.7,22.4,27.1,22.3,18.4,88,66,28,30.39,30.25,13,2,13,0.00
2013-2-10,60.3,43.0,27.1,42.6,26.2,13.1,89,57,16,30.36,30.04,16,3,16,0.15
2013-2-11,53.8,48.0,39.4,49.8,43.5,32.9,98,85,64,30.09,29.97,20,6,20,0.04
2013-2-12,50.6,38.5,24.1,33.9,28.1,22.4,94,69,38,30.20,29.93,14,2,14,0.00
2013-2-13,45.1,39.6,34.7,42.6,36.5,31.3,95,89,73,29.95,29.63,21,5,21,0.31
2013-2-14,47.7,35.5,25.7,31.8,28.5,23.9,95,77,50,30.10,29.95,17,4,17,0.00
2013-2-15,54.0,34.9,22.4,39.2,29.9,20.9,95,84,47,30.15,30.00,24,4,24,0.08
2013-2-16,33.8,28.2,22.7,29.6,21.7,13.7,95,77,50,30.09,29.95,21,5,21,0.00
2013-2-17,33.9,24.0,14.6,15.8,10.1,7.0,85,57,33,30.33,30.06,23,8,23,0.00
2013-2-18,56.0,32.2,13.6,33.0,19.6,10.4,89,64,37,30.42,30.07,16,2,16,0.01
2013-2-19,46.4,38.6,31.7,39.7,28.2,15.1,96,69,35,30.09,29.89,25,8,25,0.11
2013-2-20,40.6,30.9,19.5,17.3,14.2,10.7,78,51,30,30.25,30.09,20,6,20,0.00
2013-2-21,50.6,33.1,14.0,35.4,18.0,11.1,91,59,23,30.32,30.14,8,2,8,0.14
2013-2-22,56.5,44.9,37.3,45.6,38.9,34.6,92,80,61,30.22,30.01,13,4,13,0.21
2013-2-23,57.6,44.3,36.6,46.8,39.9,34.7,96,85,60,30.06,29.83,9,2,9,0.03
2013-2-24,52.8,40.4,25.2,43.5,28.6,20.9,97,66,33,30.10,29.87,16,4,16,0.00
2013-2-25,52.1,36.6,22.8,31.5,25.9,19.5,89,67,43,30.13,30.00,15,5,15,0.00
2013-2-26,49.7,41.2,33.6,43.0,34.7,24.7,93,78,64,30.02,29.51,22,9,22,0.19
2013-2-27,43.8,38.1,34.8,35.8,32.6,30.3,91,81,66,29.82,29.65,20,9,20,0.02
2013-2-28,34.9,32.4,30.1,31.0,27.0,23.7,92,81,66,29.98,29.76,21,9,21,0.00
2013-3-1,36.7,32.4,29.8,33.4,29.8,27.6,94,90,80,29.98,29.92,10,4,10,0.02
2013-3-2,34.9,29.7,24.0,28.7,24.4,17.3,92,81,66,30.05,29.92,16,4,16,0.01
2013-3-3,30.4,24.9,21.4,21.5,18.6,13.7,89,77,61,30.13,30.03,20,6,20,0.00
2013-3-4,46.9,33.1,22.6,28.7,19.6,14.5,79,59,31,30.24,30.09,13,3,13,0.00
2013-3-5,46.4,39.2,31.7,44.8,34.7,24.9,97,84,62,30.10,29.61,28,4,28,1.02
2013-3-6,32.3,28.2,25.5,29.1,25.2,22.3,93,88,79,30.26,29.73,20,8,20,0.00
2013-3-7,33.2,30.4,27.8,26.8,25.2,23.8,88,81,74,30.39,30.24,13,3,13,0.00
2013-3-8,45.4,33.3,24.8,29.7,25.0,22.0,90,72,51,30.44,30.34,14,3,14,0.00
2013-3-9,68.1,42.0,21.6,34.0,25.7,16.3,93,61,14,30.39,30.22,10,2,10,0.00
2013-3-10,70.8,55.6,39.2,39.9,33.4,30.5,78,46,26,30.25,30.06,13,5,13,0.00
2013-3-11,58.9,53.6,44.4,49.5,44.2,32.3,96,72,44,30.09,29.76,23,5,23,0.56
2013-3-12,48.7,41.6,29.1,48.1,37.3,27.1,98,85,59,30.07,29.77,15,4,15,0.20
2013-3-13,39.7,31.2,24.1,30.7,23.5,15.6,96,74,48,30.31,30.06,25,7,25,0.00
2013-3-14,43.1,31.5,23.5,21.4,17.5,14.1,81,58,35,30.40,30.25,18,6,18,0.00
2013-3-15,57.9,38.9,21.1,38.0,28.5,18.1,89,69,45,30.29,29.95,20,4,20,0.00
2013-3-16,69.0,53.6,34.0,54.5,45.1,31.0,98,76,47,29.95,29.71,26,6,26,0.10
2013-3-17,57.1,50.0,43.3,50.9,47.3,40.0,98,91,76,29.98,29.87,15,4,15,0.19
2013-3-18,60.2,44.0,37.0,48.3,39.9,34.0,96,86,60,29.99,29.79,15,6,15,0.85
2013-3-19,54.0,44.1,34.1,44.9,27.9,8.8,98,59,21,30.11,29.84,26,8,26,0.14
2013-3-20,49.8,36.8,21.2,30.6,17.3,8.3,91,49,22,30.13,29.86,23,6,23,0.00
2013-3-21,32.9,25.8,17.5,24.0,12.7,8.8,81,58,41,30.08,29.88,22,7,22,0.00
2013-3-22,45.3,28.7,11.0,24.0,14.7,8.5,91,60,28,30.16,30.05,14,2,14,0.00
2013-3-23,53.7,40.5,35.0,38.5,29.9,22.3,85,66,53,30.10,29.88,6,1,7,0.00
2013-3-24,44.8,41.8,37.3,40.6,37.6,33.6,94,85,68,29.89,29.44,16,6,16,0.80
2013-3-25,38.7,32.2,28.6,37.2,28.2,24.7,96,85,71,29.95,29.50,29,12,29,0.10
2013-3-26,36.5,31.0,28.2,30.2,27.4,26.0,93,87,72,30.26,29.95,16,6,16,0.01
2013-3-27,40.4,32.3,23.7,28.2,23.5,20.0,92,71,49,30.35,30.25,15,6,15,0.00
2013-3-28,48.6,32.6,19.1,28.4,22.6,17.0,94,70,36,30.39,30.30,17,3,17,0.00
2013-3-29,52.6,37.3,19.4,35.9,26.2,17.5,93,69,30,30.40,30.27,17,4,18,0.00
2013-3-30,59.1,43.8,26.9,42.0,34.9,25.7,97,74,42,30.31,30.05,17,3,17,0.00
2013-3-31,59.5,49.2,41.0,52.9,46.7,36.8,98,91,73,30.05,29.83,21,4,21,0.38
2013-4-1,56.4,48.0,39.5,48.2,41.2,30.4,98,79,46,30.04,29.88,22,6,22,0.00
2013-4-2,52.4,37.8,24.4,30.5,23.1,17.9,91,60,27,30.23,30.04,14,4,14,0.00
2013-4-3,54.6,38.6,22.4,25.2,19.7,13.8,85,51,22,30.35,30.22,12,2,12,0.00
2013-4-4,41.3,36.9,33.6,34.4,25.7,16.8,95,68,41,30.31,30.01,14,5,14,0.79
2013-4-5,58.5,42.8,34.1,45.3,38.0,32.4,97,85,55,30.12,29.99,12,2,12,0.07
2013-4-6,69.8,50.3,28.3,40.3,33.7,27.3,97,61,26,30.25,30.10,12,2,12,0.00
2013-4-7,70.1,53.0,34.3,46.2,39.1,31.3,91,63,36,30.16,30.04,21,4,21,0.00
2013-4-8,76.5,56.7,37.5,52.7,45.4,35.9,95,70,39,30.14,30.00,17,3,17,0.00
2013-4-9,80.5,62.8,42.3,56.0,50.3,41.0,96,68,38,30.18,30.03,20,3,20,0.00
2013-4-10,83.0,64.7,46.8,59.6,53.1,45.4,97,71,36,30.09,29.89,16,3,16,0.00
2013-4-11,82.6,64.8,47.3,61.0,52.8,45.9,96,70,35,29.91,29.64,15,3,15,0.29
2013-4-12,63.4,56.4,40.9,60.4,50.4,37.5,98,82,49,29.90,29.54,20,6,20,0.49
2013-4-13,67.4,50.5,34.1,42.3,36.6,32.6,96,65,29,30.07,29.90,20,4,20,0.00
2013-4-14,76.5,56.5,34.0,48.8,38.4,31.9,94,57,24,30.11,29.97,15,3,15,0.03
2013-4-15,68.4,58.4,52.2,56.1,51.7,48.8,92,79,60,30.14,29.95,15,5,16,0.06
2013-4-16,80.4,63.4,44.4,60.3,52.7,43.1,97,71,38,30.25,30.10,13,3,13,0.00
2013-4-17,68.7,59.8,53.0,60.6,57.4,52.2,97,92,71,30.26,30.09,13,2,13,1.15
2013-4-18,79.0,64.5,49.6,63.3,54.7,49.1,99,74,41,30.09,29.84,18,3,18,0.00
2013-4-19,71.4,59.7,43.6,61.3,51.8,34.2,94,76,59,29.96,29.60,29,7,29,0.33
2013-4-20,57.9,44.9,30.1,35.9,30.5,25.0,91,60,31,30.33,29.96,20,5,20,0.00
2013-4-21,52.9,36.8,30.5,33.2,29.8,27.6,91,78,43,30.46,30.33,10,2,10,0.00
2013-4-24,52.7,47.5,41.0,48.6,44.2,35.3,91,88,80,30.21,30.07,12,5,12,0.07
2013-4-25,61.9,47.5,32.7,42.0,35.8,31.4,96,67,34,30.37,30.17,12,3,12,0.00
2013-4-26,66.8,50.1,30.0,43.6,34.7,25.4,95,62,22,30.46,30.32,9,2,9,0.00
2013-4-27,61.4,54.8,50.1,52.7,46.9,35.3,94,76,50,30.38,30.17,7,2,7,0.12
2013-4-28,57.9,55.4,48.7,54.2,52.3,42.8,96,89,81,30.17,29.95,9,2,9,0.47
2013-4-29,69.9,60.5,48.7,57.7,52.7,47.9,98,77,54,30.03,29.95,13,3,13,0.47
2013-4-30,77.5,62.6,45.9,58.8,52.9,44.8,98,74,41,30.13,29.98,9,2,9,0.00
2013-5-1,70.7,60.8,49.8,54.6,51.5,48.1,95,73,49,30.24,30.13,15,6,15,0.00
2013-5-2,70.9,60.7,54.7,58.1,52.0,49.4,86,73,54,30.25,30.17,12,6,12,0.00
2013-5-3,68.0,59.3,53.8,51.0,45.6,35.3,84,63,30,30.20,30.07,15,6,15,0.00
2013-5-4,59.2,55.5,49.3,48.2,43.6,39.8,78,65,50,30.08,29.97,20,8,20,0.00
2013-5-5,54.4,51.3,48.3,50.5,45.2,36.5,93,80,62,30.03,29.83,26,10,26,0.15
2013-5-6,65.0,55.4,48.6,56.5,51.5,46.4,96,87,60,29.90,29.80,15,5,15,0.31
2013-5-7,61.9,51.9,44.3,54.0,49.0,43.2,98,90,71,29.95,29.87,12,2,12,0.10
2013-5-8,61.9,55.6,49.4,58.4,53.8,48.5,97,94,81,30.05,29.91,12,3,12,0.24
2013-5-9,73.0,59.5,48.0,61.1,54.5,47.5,99,85,56,30.12,30.02,10,2,10,0.01
2013-5-10,77.2,61.8,47.5,62.3,56.4,46.8,99,84,53,30.09,29.92,13,2,13,0.04
2013-5-11,71.2,60.7,55.2,62.5,57.9,50.7,98,91,69,29.95,29.81,12,3,12,0.34
2013-5-12,55.1,49.2,44.3,50.9,43.1,34.3,97,81,52,30.02,29.90,15,3,15,0.02
2013-5-15,67.8,55.6,48.6,57.8,52.6,47.5,98,90,69,30.02,29.95,3,0,7,0.00
2013-5-16,77.7,63.8,51.6,60.6,55.4,50.4,97,76,50,30.09,29.96,8,1,14,0.00
2013-5-17,81.9,70.9,60.3,63.5,60.3,57.1,96,72,47,30.09,30.01,13,2,13,0.73
2013-5-18,71.8,64.1,57.0,65.0,61.2,56.4,99,91,74,30.09,30.01,6,1,6,0.14
2013-5-19,81.4,67.2,61.4,67.7,63.0,60.5,98,88,57,30.06,29.93,9,2,9,0.39
2013-5-20,77.0,64.4,59.1,68.1,61.8,58.4,99,92,70,30.11,30.00,8,1,8,1.08
2013-5-21,87.3,76.3,56.9,70.5,63.9,56.3,99,69,41,30.04,29.88,27,3,27,0.91
2013-5-22,83.3,66.2,57.5,69.3,62.3,57.2,99,89,55,29.95,29.84,18,3,18,0.65
2013-5-23,76.6,60.9,60.2,62.0,60.2,59.4,99,98,61,29.92,29.85,12,0,12,0.19
2013-5-27,72.2,67.5,49.3,61.0,59.6,45.0,95,77,63,30.16,30.08,13,2,13,0.33
2013-5-28,83.3,69.3,53.6,65.5,59.6,53.0,99,75,45,30.17,30.05,13,3,13,0.00
2013-5-29,85.3,66.0,53.6,64.9,59.0,52.8,98,80,46,30.19,30.08,12,1,12,0.00
2013-5-30,89.0,71.5,53.3,65.3,59.3,52.5,98,69,40,30.22,30.06,9,2,9,0.00
2013-5-31,86.7,72.1,54.8,66.8,60.6,53.6,97,70,45,30.16,30.02,13,2,13,0.00
2013-6-1,88.7,73.9,59.9,67.0,61.6,58.0,95,69,36,30.07,29.90,12,3,12,0.00
2013-6-2,73.0,67.3,63.7,66.6,63.7,60.4,97,88,67,29.95,29.84,8,1,8,0.62
2013-6-3,78.1,68.5,61.5,67.0,62.6,58.2,98,83,57,29.99,29.85,16,2,16,0.36
2013-6-4,80.3,67.9,54.4,62.8,58.4,53.6,98,74,50,30.04,29.97,9,2,9,0.00
2013-6-5,85.7,70.5,59.3,68.3,61.4,56.3,91,75,42,30.06,29.89,12,2,12,0.03
2013-6-6,79.5,70.8,63.1,68.7,64.4,60.8,96,81,63,29.94,29.73,12,2,12,0.10
2013-6-7,75.6,68.5,63.6,67.0,64.0,59.0,96,86,63,29.83,29.67,14,2,14,0.25
2013-6-8,79.8,68.5,60.4,64.8,61.5,59.4,98,80,55,30.06,29.82,10,2,10,0.06
2013-6-9,86.3,69.8,58.2,68.6,63.0,57.3,98,81,48,30.13,29.98,12,1,12,0.15
2013-6-10,77.3,69.8,64.7,69.2,65.4,60.1,98,87,60,30.00,29.84,16,4,16,0.42
2013-6-11,79.6,69.4,62.2,66.1,63.2,60.9,97,82,60,30.00,29.88,17,4,17,0.48
2013-6-12,89.1,75.1,60.5,75.2,68.0,59.7,98,80,58,30.02,29.86,14,4,14,0.00
2013-6-13,81.4,72.4,62.1,72.4,67.3,56.8,93,84,72,29.86,29.66,19,6,19,0.12
2013-6-14,76.2,64.9,53.7,59.1,55.5,52.9,98,74,47,30.07,29.83,12,3,12,0.00
2013-6-15,80.8,66.2,50.3,62.7,56.7,49.5,99,75,46,30.15,30.03,10,2,10,0.00
2013-6-16,82.3,69.6,57.0,68.0,62.5,55.9,97,80,57,30.10,29.98,14,3,14,0.00
2013-6-17,82.3,72.4,63.3,70.1,66.5,62.1,97,83,61,30.01,29.89,10,2,10,0.03
2013-6-18,72.7,67.3,59.7,67.4,64.8,58.8,98,92,74,29.94,29.81,12,1,12,1.51
2013-6-19,81.5,67.4,57.3,67.5,61.6,56.7,99,84,55,30.10,29.93,12,1,12,0.09
2013-6-20,84.5,70.1,57.6,66.7,62.4,56.8,99,79,46,30.19,30.10,6,2,6,0.00
2013-6-21,85.9,72.3,58.6,69.1,62.8,57.8,98,75,43,30.23,30.11,6,2,6,0.00
2013-6-22,85.5,71.7,58.2,62.3,59.1,52.6,98,69,36,30.21,30.07,8,2,8,0.00
2013-6-23,88.4,73.0,58.5,67.3,62.6,57.4,98,73,42,30.19,30.08,9,2,9,0.00
2013-6-24,85.3,73.7,63.0,72.1,66.5,61.6,97,79,56,30.18,30.04,12,2,12,0.00
2013-6-25,83.5,72.6,63.7,72.2,67.3,62.8,98,84,62,30.12,29.98,14,2,14,0.00
2013-6-26,83.0,71.0,63.7,72.6,67.0,62.8,98,88,64,30.01,29.87,17,2,17,0.03
2013-6-27,79.7,69.2,64.4,72.0,66.9,62.6,97,92,75,29.90,29.74,22,4,22,0.79
2013-6-28,82.8,72.6,64.1,71.9,68.2,62.3,98,87,65,29.78,29.60,25,5,25,0.01
2013-6-29,81.7,72.1,60.9,67.2,63.8,59.2,96,77,49,29.69,29.60,15,4,15,0.00
2013-6-30,86.0,71.2,58.3,66.1,61.3,57.4,98,74,40,29.79,29.68,13,2,16,0.13
2013-7-1,85.2,71.6,63.1,69.0,65.2,62.2,98,82,51,29.91,29.75,12,2,12,0.51
2013-7-2,83.8,71.7,63.8,70.9,66.6,63.1,99,85,59,30.08,29.89,12,2,13,0.05
2013-7-3,72.2,67.0,62.2,70.2,65.4,61.5,98,95,87,30.19,30.05,6,1,6,2.41
2013-7-4,82.7,70.8,62.0,73.1,66.8,61.4,99,88,65,30.20,30.11,8,2,8,0.44
2013-7-5,86.2,73.9,64.8,72.4,67.2,63.8,98,81,56,30.17,30.09,9,2,9,0.01
2013-7-6,85.7,75.2,66.1,70.7,66.9,63.8,96,77,55,30.15,30.04,14,2,14,0.05
2013-7-7,79.4,70.8,67.2,72.1,68.0,66.2,98,91,76,30.13,30.05,12,2,12,0.09
2013-7-8,84.8,72.7,64.4,70.1,65.6,60.7,98,81,46,30.19,30.09,10,2,10,0.00
2013-7-9,88.1,74.4,63.9,71.9,67.5,62.9,98,81,53,30.14,30.03,9,1,10,0.00
2013-7-10,85.3,73.8,66.9,73.9,69.3,66.0,98,87,66,30.06,29.91,16,2,16,0.00
2013-7-11,79.1,71.8,66.3,72.1,68.8,65.5,98,91,75,29.94,29.85,7,1,8,0.14
2013-7-12,81.1,71.0,64.3,69.0,64.7,61.7,99,82,57,29.99,29.88,13,2,13,0.01
2013-7-13,78.8,68.0,62.2,66.3,62.9,60.5,96,85,62,30.07,29.97,12,4,12,0.00
2013-7-14,78.8,78.8,78.8,65.1,65.1,65.1,63,63,63,30.07,30.07,8,8,8,0.00
2013-7-15,78.8,78.8,78.8,65.1,65.1,65.1,63,63,63,30.07,30.07,8,8,8,0.00
2013-7-16,91.2,84.0,72.7,71.5,68.7,65.1,88,61,47,30.32,30.07,10,2,10,0.00
2013-7-17,89.5,75.1,65.9,74.6,69.2,65.0,98,84,55,30.27,30.11,12,2,12,0.50
2013-7-18,90.5,74.6,67.3,75.8,70.0,66.7,99,87,53,30.18,30.02,12,1,12,0.11
2013-7-19,86.0,74.9,66.6,74.8,70.3,65.3,99,87,67,30.09,29.95,16,2,16,0.56
2013-7-20,86.3,73.7,64.9,75.0,69.1,64.3,99,87,64,30.01,29.88,10,2,12,0.00
2013-7-21,82.5,72.0,65.1,74.2,68.7,64.5,99,90,68,29.98,29.90,9,2,12,0.03
2013-7-22,83.1,72.7,65.5,72.4,68.4,64.9,98,87,65,29.96,29.78,12,3,12,0.23
2013-7-23,84.8,74.1,68.5,70.8,68.5,66.2,98,84,56,29.85,29.75,13,4,13,0.01
2013-7-24,83.8,74.5,68.6,71.4,67.5,61.3,98,80,52,29.85,29.75,10,3,10,0.00
2013-7-25,81.7,70.5,59.6,65.1,61.4,57.7,98,75,51,30.04,29.85,12,2,13,0.00
2013-7-26,85.0,70.2,55.3,67.2,61.7,54.4,98,77,48,30.06,29.95,15,3,15,0.54
2013-7-27,79.8,69.0,64.5,70.6,66.6,63.0,98,93,69,30.00,29.85,12,1,12,0.76
2013-7-28,80.5,69.8,58.9,67.5,63.5,57.4,99,83,55,30.04,29.88,14,2,14,0.04
2013-7-29,78.5,65.7,52.1,61.1,56.7,51.6,99,76,44,30.21,30.03,12,2,12,0.00
2013-7-30,80.3,67.2,55.6,65.3,59.6,54.5,97,79,48,30.22,30.14,7,1,9,0.00
2013-7-31,69.0,65.5,62.6,66.8,64.1,61.4,98,95,92,30.16,29.97,5,1,5,0.93
2013-8-1,82.0,72.4,64.6,69.7,66.5,63.1,99,83,58,29.98,29.89,12,3,12,0.06
2013-8-2,82.7,70.0,60.9,67.5,62.5,58.2,99,80,48,30.03,29.94,7,1,7,0.00
2013-8-3,82.3,71.7,61.7,69.0,65.1,60.7,98,81,54,30.02,29.94,14,2,14,0.00
2013-8-4,81.4,72.7,64.3,69.2,63.9,59.3,98,76,49,30.04,29.94,9,2,12,0.07
2013-8-5,82.7,69.5,58.1,65.4,61.0,57.1,97,77,49,30.05,29.94,12,2,12,0.00
2013-8-6,84.7,72.5,60.3,69.5,64.8,58.6,95,78,52,30.00,29.93,9,2,9,0.00
2013-8-7,84.1,72.1,66.9,72.2,68.4,65.5,98,89,64,30.01,29.95,12,1,12,0.45
2013-8-8,82.0,73.4,67.2,73.3,69.7,66.6,99,89,70,30.01,29.95,9,1,9,0.06
2013-8-9,85.3,73.6,66.6,75.0,70.1,66.0,99,89,67,30.07,29.96,12,2,12,0.90
2013-8-10,82.0,71.9,67.1,75.2,70.1,66.5,99,94,77,30.10,30.03,9,1,9,0.77
2013-8-11,83.8,73.3,67.2,74.1,70.0,66.6,99,90,70,30.13,30.02,12,2,12,0.06
2013-8-12,83.6,73.8,65.6,74.1,69.8,65.0,98,88,68,30.07,29.93,9,2,12,0.33
2013-8-13,77.3,69.4,64.8,71.7,67.5,62.6,99,94,81,29.95,29.82,12,2,12,1.59
2013-8-14,73.5,64.6,54.3,63.2,56.8,51.1,97,78,49,30.09,29.91,12,2,12,0.00
2013-8-15,76.4,63.2,51.5,62.4,56.0,49.5,94,79,56,30.12,30.03,12,3,12,0.00
2013-8-16,79.8,66.1,54.5,62.7,57.5,52.9,95,76,47,30.12,30.04,9,3,9,0.00
2013-8-17,63.9,59.2,55.3,58.0,56.1,53.6,95,90,78,30.15,30.11,7,2,7,0.00
2013-8-18,79.4,71.3,62.7,69.0,65.2,57.3,97,82,65,30.18,30.09,13,3,8,0.28
2013-8-19,81.0,69.7,64.3,69.6,66.0,63.7,99,89,64,30.16,30.04,6,1,6,0.08
2013-8-20,86.5,72.2,63.5,71.8,67.0,62.9,98,85,57,30.15,30.06,9,1,9,0.00
2013-8-21,83.1,71.2,64.1,71.5,67.0,63.1,99,88,64,30.19,30.08,12,1,12,0.04
2013-8-22,83.0,71.9,61.6,71.0,66.5,61.0,99,85,61,30.16,30.01,12,2,12,0.00
2013-8-23,82.5,70.7,62.4,71.2,65.9,61.8,99,86,57,30.07,29.97,9,1,9,0.00
2013-8-24,81.4,68.7,59.0,63.3,60.0,56.2,97,77,47,30.29,30.07,12,3,12,0.00
2013-8-25,81.9,65.4,50.4,63.0,56.7,49.6,99,77,39,30.38,30.25,8,1,8,0.00
2013-8-26,82.8,66.5,51.6,67.8,60.6,51.1,99,83,58,30.31,30.12,9,1,9,0.00
2013-8-27,80.9,69.7,58.4,71.8,65.8,57.8,99,88,72,30.15,30.01,7,1,7,0.00
2013-8-28,84.6,73.5,64.1,73.4,68.5,63.5,99,85,61,30.04,29.91,13,2,13,0.00
2013-8-29,89.5,76.5,66.9,73.0,69.2,65.7,98,80,49,29.96,29.89,10,2,10,0.00
2013-8-30,87.2,74.7,65.0,71.7,67.5,63.8,97,80,54,29.99,29.88,12,2,12,0.00
2013-8-31,75.2,70.4,65.5,73.0,68.8,64.8,98,95,83,29.93,29.84,7,1,12,0.97
2013-9-1,78.2,68.7,64.3,71.9,67.3,64.0,99,96,78,29.91,29.81,13,1,13,0.90
2013-9-2,82.0,72.4,65.4,71.9,68.7,65.1,99,89,69,29.92,29.80,10,2,10,0.07
2013-9-3,80.6,69.2,58.4,70.9,64.5,57.5,99,87,55,30.01,29.79,12,2,12,0.03
2013-9-4,82.1,65.5,51.2,64.0,58.0,50.7,99,80,42,30.13,30.00,8,1,9,0.01
2013-9-5,82.9,65.9,50.7,64.0,57.6,50.2,99,78,46,30.17,30.09,8,1,8,0.00
2013-9-6,83.5,67.2,53.6,65.3,60.0,53.0,99,81,49,30.18,30.06,7,1,7,0.00
2013-9-7,82.1,67.5,53.5,66.2,61.0,52.9,99,82,52,30.11,29.98,9,1,10,0.01
2013-9-8,83.3,69.1,58.6,69.9,63.9,58.0,99,85,55,30.01,29.94,7,1,7,0.00
2013-9-9,88.8,72.3,60.1,70.6,65.1,59.5,99,81,49,30.12,30.01,8,1,8,0.00
2013-9-10,89.7,74.1,62.0,71.3,66.4,61.1,98,80,48,30.20,30.10,7,1,7,0.00
2013-9-11,83.9,72.5,66.2,72.9,68.9,65.3,98,89,66,30.19,30.07,9,1,9,0.05
2013-9-12,82.3,70.4,63.7,71.5,67.3,62.8,100,91,68,30.07,29.85,17,2,17,1.35
2013-9-13,72.0,64.9,54.3,64.1,56.7,48.6,99,77,47,29.97,29.83,13,3,13,0.06
2013-9-14,74.7,56.8,43.4,52.0,47.8,42.7,99,76,35,30.12,29.97,9,2,9,0.00
2013-9-15,79.2,61.1,45.7,62.0,53.9,45.2,99,80,47,30.21,30.09,7,1,8,0.00
2013-9-16,75.5,62.6,53.5,64.2,58.0,52.9,99,86,64,30.22,30.12,8,1,8,0.00
2013-9-17,72.8,60.6,51.9,58.9,54.3,50.4,97,81,58,30.27,30.19,12,3,12,0.01
2013-9-18,69.8,60.6,52.3,61.5,56.4,50.1,97,87,66,30.24,30.15,8,2,8,0.06
2013-9-19,71.9,64.4,61.5,67.3,62.8,60.8,99,95,83,30.17,30.07,6,0,6,0.26
2013-9-20,81.2,68.0,58.6,68.7,63.7,58.3,100,88,61,30.08,29.88,12,1,12,0.00
2013-9-21,68.0,62.8,58.7,65.9,61.9,58.1,99,97,91,29.88,29.71,9,1,9,0.72
2013-9-22,71.0,58.5,47.3,58.5,53.3,46.8,100,85,55,29.96,29.78,9,1,9,0.06
2013-9-23,75.5,58.1,45.0,60.3,52.5,44.5,99,84,52,30.05,29.95,12,1,12,0.00
2013-9-24,79.5,60.7,47.1,62.3,54.7,46.6,99,83,49,30.08,29.90,7,1,7,0.00
2013-9-25,66.8,61.0,53.9,62.9,58.9,53.2,99,93,83,29.92,29.83,8,1,8,0.07
2013-9-26,77.5,63.3,52.6,59.5,55.5,49.0,99,79,40,30.04,29.88,8,1,12,0.00
2013-9-27,79.0,61.0,49.3,61.4,54.5,48.8,99,82,47,30.16,30.04,7,1,7,0.01
2013-9-28,74.9,60.1,49.4,58.5,53.9,48.6,98,82,51,30.24,30.12,8,1,8,0.00
2013-9-29,72.2,59.4,49.7,61.4,54.2,48.5,97,84,61,30.16,30.02,8,1,8,0.00
2013-9-30,76.9,62.7,54.1,61.8,57.7,53.0,96,85,56,30.08,29.98,5,1,5,0.00
2013-10-1,76.1,60.7,51.0,61.8,55.4,50.5,99,85,53,30.15,30.05,10,1,10,0.00
2013-10-2,80.8,61.1,47.6,64.8,56.3,47.1,99,86,51,30.19,30.08,7,1,7,0.01
2013-10-3,80.0,63.9,53.5,65.8,59.3,52.9,99,87,59,30.14,30.05,6,1,6,0.00
2013-10-4,83.1,65.0,53.1,66.3,59.4,52.8,99,85,52,30.18,30.08,7,0,7,0.00
2013-10-5,87.0,66.8,52.4,68.0,60.4,52.1,99,83,48,30.15,30.00,5,1,6,0.01
2013-10-6,85.8,68.1,52.7,66.8,59.6,52.2,99,77,46,30.02,29.81,12,1,12,0.00
2013-10-7,70.7,59.4,46.6,62.8,53.8,44.1,98,83,52,30.09,29.75,15,2,15,0.62
2013-10-8,66.6,52.5,40.3,52.5,45.4,39.5,98,79,54,30.23,30.08,14,3,14,0.01
2013-10-9,72.8,53.9,41.7,49.7,44.3,39.6,94,73,38,30.26,30.14,15,2,15,0.00
2013-10-10,72.3,52.3,36.8,56.5,46.1,36.0,98,82,51,30.18,30.07,6,1,6,0.00
2013-10-11,75.0,59.1,44.0,57.0,49.0,41.6,99,74,31,30.09,29.98,12,2,12,0.00
2013-10-12,71.6,62.2,55.1,63.0,58.3,53.6,97,88,71,30.10,29.99,5,1,5,0.00
2013-10-13,72.4,62.2,56.8,63.6,59.7,56.0,99,92,73,30.21,30.10,12,1,12,0.06
2013-10-14,73.3,61.4,52.1,62.1,57.2,51.6,99,87,64,30.24,30.12,12,2,12,0.00
2013-10-15,73.1,59.6,48.0,59.3,54.2,47.5,99,84,59,30.18,30.02,8,2,8,0.01
2013-10-16,66.3,58.3,48.7,58.6,54.3,47.3,97,87,73,30.05,29.95,7,1,7,0.00
2013-10-17,63.9,59.3,52.4,62.8,57.9,49.3,98,95,87,29.97,29.81,15,2,15,0.16
2013-10-18,64.5,50.6,37.3,50.0,44.9,36.5,99,83,52,30.08,29.96,9,1,9,0.00
2013-10-19,60.0,52.0,45.9,52.6,47.9,41.1,98,87,67,30.00,29.87,14,3,14,0.00
2013-10-20,64.2,44.5,29.9,41.3,35.3,27.9,98,75,27,30.13,30.00,7,1,7,0.00
2013-10-21,66.5,47.2,31.9,48.1,39.5,30.9,98,78,41,30.17,30.02,14,2,14,0.00
2013-10-22,62.1,51.1,42.0,50.2,46.5,40.4,97,85,64,30.04,29.83,13,3,13,0.00
2013-10-23,51.1,44.3,32.3,48.1,39.8,30.5,97,84,62,30.08,29.75,24,6,24,0.06
2013-10-24,47.2,37.2,26.6,36.9,32.7,25.6,97,85,61,30.25,30.08,16,3,16,0.04
2013-10-25,39.8,34.0,24.3,35.2,28.5,22.3,92,81,61,30.46,30.25,12,3,12,0.00
2013-10-26,53.0,37.0,19.3,34.0,26.1,17.9,97,69,35,30.42,30.15,20,3,20,0.00
2013-10-27,63.3,49.4,33.8,44.4,39.0,30.9,91,69,45,30.18,30.06,16,3,16,0.00
2013-10-28,62.1,52.7,46.6,55.2,50.1,43.4,97,91,76,30.27,30.14,7,1,7,0.03
2013-10-29,68.3,57.5,52.2,55.2,52.1,50.1,97,84,55,30.34,30.23,10,1,10,0.00
2013-10-30,70.9,58.4,51.3,59.6,54.5,49.6,98,88,66,30.27,30.15,14,2,14,0.26
2013-10-31,68.1,60.2,50.2,59.0,53.3,49.3,100,80,58,30.15,29.66,21,3,21,0.00
2013-11-1,69.8,61.2,44.7,60.7,53.2,43.1,97,77,46,29.75,29.61,23,6,23,0.29
2013-11-2,58.6,46.4,37.4,46.4,39.3,34.6,99,79,49,30.07,29.75,17,3,17,0.00
2013-11-3,53.5,40.5,31.3,39.9,34.1,29.6,97,80,50,30.42,30.07,9,2,9,0.00
2013-11-4,56.4,44.0,32.3,36.1,31.3,28.7,88,63,39,30.52,30.40,13,4,13,0.00
2013-11-5,61.9,45.8,35.2,38.7,32.6,29.7,90,62,31,30.52,30.39,13,4,13,0.00
2013-11-6,72.0,52.3,34.8,53.1,44.1,33.0,99,77,47,30.40,30.09,15,2,15,0.00
2013-11-7,55.1,46.9,36.8,54.3,41.8,29.2,97,83,61,30.23,29.99,15,4,17,0.23
2013-11-8,49.4,35.6,26.4,30.3,26.5,23.6,94,72,39,30.39,30.23,16,2,16,0.00
2013-11-9,53.9,36.9,23.2,32.9,26.3,20.4,91,69,36,30.38,30.26,22,2,22,0.00
2013-11-10,61.5,41.8,26.0,39.8,29.2,23.0,96,66,25,30.35,30.22,17,4,17,0.00
2013-11-11,63.1,39.8,22.6,31.8,25.0,16.0,91,63,16,30.36,30.19,10,2,10,0.00
2013-11-12,45.9,33.5,25.1,38.6,26.8,15.0,86,76,61,30.57,30.14,17,4,17,0.01
2013-11-13,40.2,27.2,17.5,20.7,17.7,14.0,88,69,42,30.67,30.54,13,3,13,0.00
2013-11-14,54.0,30.4,14.3,25.5,18.7,12.2,93,68,24,30.57,30.37,10,2,10,0.00
2013-11-15,55.6,37.7,20.6,44.5,30.9,17.2,97,80,37,30.39,30.24,10,1,10,0.20
2013-11-16,69.5,50.8,41.4,54.6,47.0,40.6,99,88,57,30.26,30.13,10,2,10,0.00
2013-11-17,68.9,54.0,39.7,59.3,50.5,38.9,99,89,59,30.15,29.82,12,1,12,0.16
2013-11-18,61.1,53.6,42.5,59.3,41.5,27.0,99,67,35,30.09,29.82,18,6,18,0.11
2013-11-19,50.0,38.2,26.7,28.9,26.4,23.0,87,64,38,30.30,30.09,10,3,10,0.00
2013-11-20,53.4,41.0,31.6,29.4,26.9,21.6,78,59,30,30.41,30.27,14,6,14,0.00
2013-11-21,65.6,46.9,34.4,49.6,39.3,27.6,94,76,54,30.47,30.32,12,4,12,0.00
2013-11-22,59.5,52.3,46.6,54.3,50.5,44.4,98,93,80,30.36,30.15,9,2,9,0.16
2013-11-23,51.7,41.9,28.3,50.3,34.3,15.6,95,75,46,30.35,30.16,21,6,21,0.00
2013-11-24,30.4,23.1,16.6,16.9,8.6,1.9,78,55,32,30.59,30.34,17,4,17,0.00
2013-11-25,38.3,28.4,16.6,27.7,13.8,9.1,88,56,33,30.57,30.30,12,3,12,0.00
2013-11-26,43.9,38.7,30.7,43.1,37.6,27.8,98,96,89,30.30,29.72,12,3,12,1.88
2013-11-27,37.5,27.7,21.3,36.5,24.3,14.6,96,87,74,30.31,29.73,16,4,16,0.07
2013-11-28,38.6,22.6,9.8,25.4,16.3,7.6,93,78,49,30.57,30.31,10,1,10,0.10
2013-11-29,51.2,28.0,13.5,32.1,21.1,11.6,96,78,40,30.68,30.57,5,1,5,0.03
2013-11-30,47.7,34.0,26.0,31.3,25.1,21.3,82,71,48,30.61,30.36,16,5,16,0.00
2013-12-1,52.4,34.1,19.0,35.5,27.0,17.1,94,77,46,30.37,30.07,10,1,10,0.00
2013-12-2,49.1,41.8,35.1,40.2,36.4,31.3,91,81,69,30.07,29.85,8,1,8,0.00
2013-12-3,60.7,46.0,37.3,48.3,41.2,34.9,95,84,61,29.93,29.85,5,1,5,0.00
2013-12-4,69.7,50.2,36.0,53.3,44.8,34.8,98,84,51,30.04,29.92,13,1,13,0.00
2013-12-5,69.9,54.7,39.9,59.7,50.4,38.7,98,87,63,30.07,29.94,12,1,12,0.06
2013-12-6,57.6,51.6,40.1,56.8,50.7,39.1,99,97,91,30.12,29.87,16,1,16,0.86
2013-12-7,40.5,35.7,32.2,39.7,33.1,29.9,97,90,82,30.46,30.10,14,4,14,0.02
2013-12-8,39.6,36.5,33.6,36.0,34.0,30.7,96,91,85,30.41,30.14,18,9,18,0.37
2013-12-9,46.5,41.8,37.0,46.0,41.1,36.0,99,97,96,30.18,30.05,10,2,10,0.23
2013-12-10,41.4,34.3,21.7,41.1,31.3,19.0,99,89,71,30.38,29.98,15,4,15,0.25
2013-12-11,44.4,27.3,14.2,27.3,20.4,12.5,96,78,41,30.52,30.37,16,2,16,0.00
2013-12-12,35.5,26.4,17.8,21.6,17.5,14.0,87,70,47,30.51,30.42,15,3,15,0.00
2013-12-13,45.9,28.2,13.9,25.6,18.7,11.9,94,71,34,30.46,30.28,13,1,13,0.00
2013-12-14,40.8,38.3,34.9,38.3,32.3,22.3,96,80,54,30.30,29.79,15,4,15,0.54
2013-12-15,42.3,34.2,29.8,41.8,30.8,25.8,98,87,82,30.17,29.77,17,7,17,0.03
2013-12-16,45.1,32.0,24.2,32.9,27.4,22.7,94,84,61,30.26,30.13,16,5,16,0.00
2013-12-17,52.1,38.4,24.3,38.3,31.2,22.8,97,77,53,30.20,29.96,26,6,26,0.05
2013-12-18,40.9,29.8,21.0,24.5,21.5,18.3,89,72,46,30.35,30.18,15,4,17,0.00
2013-12-19,54.9,33.4,18.6,32.3,24.1,16.6,93,73,31,30.39,30.21,7,1,7,0.00
2013-12-20,63.0,41.3,27.2,40.2,32.6,24.9,92,74,36,30.25,30.12,7,1,7,0.00
2013-12-21,71.1,56.9,41.0,58.5,49.2,36.7,90,76,59,30.12,29.84,9,1,9,0.00
2013-12-22,70.8,57.2,49.7,58.7,53.5,49.2,99,89,64,30.04,29.82,23,3,23,1.29
2013-12-23,53.0,43.2,31.3,52.7,41.3,26.9,99,93,83,30.30,29.97,12,3,12,0.40
2013-12-24,31.2,26.8,15.6,27.5,20.7,12.4,89,78,54,30.51,30.28,18,4,18,0.00
2013-12-25,41.1,24.4,13.5,20.9,15.0,9.0,91,70,35,30.53,30.38,12,2,12,0.00
2013-12-26,44.4,27.8,17.2,28.1,21.6,15.4,93,79,50,30.46,30.37,17,2,17,0.00
2013-12-27,48.5,28.0,16.6,26.7,19.6,14.4,94,75,35,30.54,30.44,9,1,9,0.00
2013-12-28,45.4,30.8,17.1,36.7,25.7,15.2,95,82,55,30.49,30.15,6,1,6,0.41
2013-12-29,44.0,41.8,38.1,43.5,40.7,36.8,98,96,92,30.17,29.84,17,6,17,1.02
2013-12-30,39.8,36.2,32.8,38.5,34.1,30.7,96,92,86,30.22,30.01,12,4,12,0.01
2013-12-31,38.9,30.8,21.1,30.7,25.5,18.9,92,82,58,30.43,30.20,16,5,16,0.00
2014-1-1,53.4,29.8,20.0,29.1,22.1,18.1,94,77,28,30.42,30.16,10,1,10,0.00
2014-1-2,38.6,30.2,17.7,37.5,27.5,10.9,96,90,72,30.16,29.72,22,4,22,0.13